ALOS - Orbit

View from above orbital plane
View from above orbital plane
View from above satellite
View from above satellite

Ground track
Ground track

The orbit data is extracted from the following two-line orbital elements,

1 28931U 06002A   13140.87114321  .00001262  00000-0  27001-3 0  1522
2 28931 098.0330 206.6484 0001142 044.1225 316.0052 14.60396970390053
Epoch (UTC): 20 May 2013 20:54:26
Eccentricity: 0.0001142
inclination: 98.0330°
perigee height: 691 km
apogee height: 693 km
right ascension of ascending node: 206.6484°
argument of perigee: 44.1225°
revolutions per day: 14.60396970
mean anomaly at epoch: 316.0052°
orbit number at epoch: 39005

The dashed part of the orbit path shows where the satellite is in the earth's shadow,  

Developed and maintained by Chris Peat, Heavens-Above GmbH. Please read the updated FAQ before sending e-mail. Imprint. DLR